Contact Us:
Email: info@sawbill.com
Phone: (218)663-7150
Fax: (218)663-7980
Mail: 4620 Sawbill Trail
Box 2129
Tofte, MN 55615


Powered by
Movable Type 3.15
 
Sawbill Weather History Archives: June 2009
Current Sawbill Weather History | « May 2009 | July 2009 »


Date

High
Temperature

Low
Temperature

Barometric
Pressure

Relative
Humidity 7AM

9 AM
Temperature

Moisture

Snow

6/30/09 51 46 29.88 98% 47 .1"
6/29/09 59 48 29.80 98% 49 .02"
6/28/09 58 55 29.65 98% 55 .53"
6/27/09 64 56 29.56 78% 57 .11"
6/26/09 77 57 29.85 84% 60 0
6/25/09 76 57 30.30 82% 58 0
6/24/09 79 60 29.94 62% 62 0
6/23/09 82 62 30.03 71% 65 0
6/22/09 70 60 29.97 98% 64 .06"
6/21/09 77 59 29.91 88% 63 .09"
6/20/09 76 57 30.03 92% 59 0
6/19/09 71 59 29.80 98% 60 .06"
6/18/09 74 60 29.74 98% 60 .83"
6/17/09 75 52 29.88 81% 60 0
6/16/09 75 52 30.03 78% 52 0
6/15/09 74 45 30.09 81% 52 0
6/14/09 71 43 30.12 77% 45 0
6/13/09 68 50 30.06 84% 52 0
6/12/09 64 41 30.00 91% 50 .06"
6/11/09 59 38 30.03 83% 41 .01"
6/10/09 60 42 29.97 81% 42 .03"
6/9/09 55 45 29.97 96% 46 .13"
6/8/09 52 45 29.97 94% 45 .31"
6/7/09 52 39 30.00 60% 41 0
6/6/09 56 43 30.12 65% 43 0
6/5/09 52 37 30.09 73% 43 .02"
6/4/09 69 49 29.80 89% 49 .24"
6/3/09 62 36 30.03 48% 51 0
6/2/09 54 34 30.30 75% 36 Trace
6/1/09 57 37 30.09 91% 39 .09"
 


Home I Trip Planning I Rentals and Outfitting I Reservations I Campgrounds I Sawbill Store I Sawbill News I Contact

© 1997 - 2017, Sawbill Canoe Outfitters, Inc. I Privacy Policy